Weather Roundup
Issued by NWS

Home | Current Version | Previous Version | Text Only | Print | Product List | Glossary On
Versions: 1 2 3 4 5 6 7 8 9 10 11 12 13 14 15 16 17 18 19 20 21 22 23 24 25 26 27 28 29 30 31 32 33 34 35 36 37 38 39 40 41 42 43 44 45 46 47 48 49 50
965
NZUS93 KARX 271610
HRRWXR

CURRENT HOURLY OBSERVATIONS ACROSS
MUCH OF THE UPPER MISSISSIPPI VALLEY
NATIONAL WEATHER SERVICE LA CROSSE WI
1100 AM CDT SAT AUG 27 2016


...SOUTHEAST MINNESOTA...


CITY           SKY/WX    TMP DP  RH WIND       PRES   REMARKS
ROCHESTER      CLOUDY    64  62  93 SE10      30.04F
ROCHESTER/MAYO CLOUDY    63  63  99 E8        30.04F
WINONA         CLOUDY    64  59  82 SE7       30.05F
AUSTIN         RAIN      63  61  94 CALM      30.04S
ALBERT LEA     CLOUDY    63  63 100 SE6       30.03F FOG
DODGE CENTER   HVY RAIN  61  61 100 E3        30.05S
PRESTON        CLOUDY    64  60  88 SE7       30.05F
OWATONNA       DRIZZLE   63  61  94 E3        30.04F
FARIBAULT      LGT RAIN  61  61 100 CALM      30.05F
$$

...ELSEWHERE IN MINNESOTA...


CITY           SKY/WX    TMP DP  RH WIND       PRES   REMARKS
MINNEAPOLIS    CLOUDY    64  59  83 SE5       30.06F HAZE
INTNL FALLS    CLOUDY    68  55  63 VRB6      30.03F
DULUTH         LGT RAIN  62  58  86 SE7       30.09F
RED WING       DRIZZLE   64  61  88 E7        30.04F
REDWOOD FALLS  CLOUDY    63  58  83 E10       30.01F
MANKATO        CLOUDY    63  57  82 E8        30.03F
WORTHINGTON    CLOUDY    63  62  97 SW5       30.03S FOG
FAIRMONT       CLOUDY    62  61  96 S5        30.03F
$$

...SOUTHWEST WISCONSIN...


CITY           SKY/WX    TMP DP  RH WIND       PRES   REMARKS
LA CROSSE      CLOUDY    66  61  84 SE7       30.04F
PRAIRIE DU CHI CLOUDY    65  64  96 E6        30.02F
BOSCOBEL       CLOUDY    67  63  87 VRB6      30.04F
LONE ROCK      LGT RAIN  64  62  93 E7        30.05F
PLATTEVILLE    CLOUDY    66  66 100 E5        30.03F
FORT MC COY    CLOUDY    64  60  90 E6        30.07S
CAMP DOUGLAS   CLOUDY    63  61  94 E9        30.06F
MAUSTON-NEW LI CLOUDY    63  61  95 E3        30.06F FOG
VIROQUA        CLOUDY    66  63  89 SE8G16    30.06S
WIS DELLS      CLOUDY    62  60  93 E6        30.06F
$$

...ELSEWHERE IN WISCONSIN...


CITY           SKY/WX    TMP DP  RH WIND       PRES   REMARKS
MILWAUKEE      PTSUNNY   69  65  86 NE9       30.05F
MADISON        DRIZZLE   64  62  93 E6        30.04F
GREEN BAY      CLOUDY    63  62  97 E8        30.10F
EAU CLAIRE     CLOUDY    68  58  70 SE8       30.06F
BLACK RVR FLS  CLOUDY    64  62  94 E5        30.06F
MEDFORD        MOSUNNY   67  58  75 SE8       30.09F
WAUSAU         CLOUDY    64  58  80 SE10      30.09F
WIS RAPIDS     CLOUDY    64  61  90 E6        30.09F
MARSHFIELD     CLOUDY    65  58  78 E8        30.09F
RICE LAKE      CLOUDY    65  58  77 E5        30.09F
$$

...NORTHEAST IOWA...


CITY           SKY/WX    TMP DP  RH WIND       PRES   REMARKS
WATERLOO       CLOUDY    67  64  90 SE6       30.02F
DUBUQUE        FOG       66  66 100 N6        30.03F VSB 3/4
DECORAH        CLOUDY    64  64 100 VRB5G12   30.04S
MASON CITY     CLOUDY    64  63  96 SE7       30.04F
CHARLES CITY   CLOUDY    66  66 100 S5        30.04F FOG
OELWEIN        CLOUDY    66  64  94 E5        30.04F
$$

...ELSEWHERE IN IOWA...


CITY           SKY/WX    TMP DP  RH WIND       PRES   REMARKS
DES MOINES     CLOUDY    69  66  90 SE5       30.03F FOG
IOWA CITY      CLOUDY    74  67  78 W10       30.03F
FORT DODGE     CLOUDY    66  63  88 S6        30.05S
MARSHALLTOWN   CLOUDY    67  66  97 VRB3      30.04S
CEDAR RAPIDS   PTSUNNY   73  70  90 SW8       30.02S
$$

...NORTHERN ILLINOIS...


CITY           SKY/WX    TMP DP  RH WIND       PRES   REMARKS
CHICAGO-OHARE  CLOUDY    74  70  87 S12       30.05S
CHICAGO-MIDWAY CLOUDY    75  70  84 S8        30.06R
MOLINE         PTSUNNY   76  68  76 SW15      30.02S
ROCKFORD       CLOUDY    74  69  85 S6        30.04S
PEORIA         CLOUDY    73  73 100 S13       30.05S
$$

NOTE: "FAIR" INDICATES FEW OR NO CLOUDS BELOW 12,000 FEET WITH NO
SIGNIFICANT WEATHER AND/OR OBSTRUCTIONS TO VISIBILITY. WIND
SPEEDS ARE IN MILES-PER-HOUR.




USA.gov is the U.S. government's official web portal to all federal, state and local government web resources and services.